Hourly Weather Godzieszow

Today, 17 May, Monday

Time Temperature Precipitation Wind Pressure Humidity
00:00 +8°C° 0 mm 2 mps 731 mmHg 90%
01:00 +7°C° 0 mm 2 mps 730 mmHg 91%
02:00 +7°C° 0 mm 2 mps 730 mmHg 92%
03:00 +7°C° 0 mm 2 mps 730 mmHg 92%
04:00 +7°C° 0 mm 2 mps 730 mmHg 93%
05:00 +8°C° 0 mm 2 mps 731 mmHg 90%
06:00 +10°C° 0 mm 2 mps 731 mmHg 86%
07:00 +12°C° 0 mm 2 mps 731 mmHg 83%
08:00 +12°C° 0.2 mm 3 mps 731 mmHg 79%
09:00 +13°C° 0.2 mm 3 mps 732 mmHg 74%
10:00 +14°C° 0.2 mm 4 mps 732 mmHg 70%
11:00 +14°C° 0.4 mm 4 mps 732 mmHg 70%
12:00 +14°C° 0.4 mm 4 mps 732 mmHg 70%
13:00 +14°C° 0.4 mm 4 mps 732 mmHg 70%
14:00 +14°C° 0.2 mm 4 mps 732 mmHg 71%
15:00 +14°C° 0.2 mm 4 mps 732 mmHg 73%
16:00 +13°C° 0.2 mm 4 mps 732 mmHg 75%
17:00 +13°C° 0.1 mm 4 mps 733 mmHg 78%
18:00 +12°C° 0.1 mm 4 mps 733 mmHg 82%
19:00 +11°C° 0.1 mm 4 mps 733 mmHg 85%
20:00 +10°C° 0 mm 4 mps 733 mmHg 87%
21:00 +10°C° 0 mm 4 mps 734 mmHg 89%
22:00 +8°C° 0 mm 4 mps 734 mmHg 91%
23:00 +8°C° 0 mm 4 mps 734 mmHg 91%

Tomorrow, 18 May, Tuesday

Time Temperature Precipitation Wind Pressure Humidity
00:00 +7°C° 0 mm 4 mps 734 mmHg 91%
01:00 +6°C° 0 mm 4 mps 735 mmHg 91%
02:00 +6°C° 0 mm 4 mps 735 mmHg 92%
03:00 +6°C° 0 mm 4 mps 735 mmHg 93%
04:00 +6°C° 0 mm 4 mps 735 mmHg 93%
05:00 +7°C° 0 mm 4 mps 735 mmHg 91%
06:00 +8°C° 0 mm 4 mps 735 mmHg 90%
07:00 +9°C° 0 mm 5 mps 736 mmHg 88%
08:00 +9°C° 0.1 mm 5 mps 736 mmHg 87%
09:00 +9°C° 0.1 mm 5 mps 736 mmHg 87%
10:00 +9°C° 0.1 mm 5 mps 736 mmHg 86%
11:00 +12°C° 0.1 mm 5 mps 736 mmHg 76%
12:00 +13°C° 0.1 mm 5 mps 736 mmHg 67%
13:00 +15°C° 0.1 mm 6 mps 736 mmHg 57%
14:00 +15°C° 0.1 mm 5 mps 736 mmHg 60%
15:00 +14°C° 0.1 mm 5 mps 736 mmHg 63%
16:00 +14°C° 0.1 mm 5 mps 736 mmHg 66%
17:00 +13°C° 0.2 mm 4 mps 737 mmHg 72%
18:00 +12°C° 0.2 mm 4 mps 737 mmHg 79%
19:00 +11°C° 0.2 mm 3 mps 737 mmHg 86%
20:00 +10°C° 0 mm 3 mps 737 mmHg 89%
21:00 +9°C° 0 mm 3 mps 738 mmHg 92%
22:00 +7°C° 0 mm 3 mps 738 mmHg 95%
23:00 +7°C° 0 mm 3 mps 738 mmHg 95%

Day after tomorrow, 19 May, Wednesday

Time Temperature Precipitation Wind Pressure Humidity
00:00 +7°C° 0 mm 3 mps 738 mmHg 95%
01:00 +6°C° 0 mm 4 mps 739 mmHg 94%
02:00 +5°C° 0 mm 4 mps 738 mmHg 94%
03:00 +5°C° 0 mm 4 mps 738 mmHg 93%
04:00 +5°C° 0 mm 4 mps 738 mmHg 93%
05:00 +6°C° 0.1 mm 4 mps 739 mmHg 92%
06:00 +6°C° 0.1 mm 4 mps 739 mmHg 91%
07:00 +7°C° 0.1 mm 4 mps 739 mmHg 91%
08:00 +7°C° 0.5 mm 4 mps 739 mmHg 92%
09:00 +7°C° 0.5 mm 4 mps 739 mmHg 94%
10:00 +7°C° 0.5 mm 5 mps 740 mmHg 95%
11:00 +8°C° 0.2 mm 5 mps 740 mmHg 90%
12:00 +8°C° 0.2 mm 5 mps 740 mmHg 86%
13:00 +9°C° 0.2 mm 5 mps 740 mmHg 81%
14:00 +11°C° 0.1 mm 4 mps 740 mmHg 77%
15:00 +11°C° 0.1 mm 4 mps 740 mmHg 73%
16:00 +11°C° 0.1 mm 4 mps 740 mmHg 69%
17:00 +11°C° 0.1 mm 3 mps 740 mmHg 73%
18:00 +10°C° 0.1 mm 2 mps 740 mmHg 77%
19:00 +10°C° 0.1 mm 1 mps 740 mmHg 81%
20:00 +9°C° 0 mm 1 mps 740 mmHg 84%
21:00 +8°C° 0 mm 1 mps 741 mmHg 87%
22:00 +7°C° 0 mm 1 mps 741 mmHg 90%
23:00 +7°C° 0 mm 1 mps 741 mmHg 91%

20 May, Thursday

Time Temperature Precipitation Wind Pressure Humidity
00:00 +6°C° 0 mm 1 mps 741 mmHg 92%
01:00 +5°C° 0 mm 2 mps 741 mmHg 93%
02:00 +5°C° 0 mm 2 mps 741 mmHg 94%
03:00 +5°C° 0 mm 2 mps 741 mmHg 94%
04:00 +5°C° 0 mm 2 mps 741 mmHg 95%
05:00 +6°C° 0 mm 2 mps 742 mmHg 91%
06:00 +8°C° 0 mm 3 mps 742 mmHg 88%
07:00 +8°C° 0 mm 4 mps 742 mmHg 85%
08:00 +10°C° 0.3 mm 4 mps 742 mmHg 85%
09:00 +10°C° 0.3 mm 4 mps 742 mmHg 85%
10:00 +10°C° 0.3 mm 5 mps 743 mmHg 85%
11:00 +10°C° 0.3 mm 5 mps 743 mmHg 80%
12:00 +12°C° 0.3 mm 5 mps 743 mmHg 75%
13:00 +13°C° 0.3 mm 5 mps 743 mmHg 70%
14:00 +13°C° 0.3 mm 5 mps 743 mmHg 68%
15:00 +13°C° 0.3 mm 5 mps 743 mmHg 66%
16:00 +14°C° 0.3 mm 5 mps 743 mmHg 64%
17:00 +12°C° 0.2 mm 5 mps 743 mmHg 68%
18:00 +11°C° 0.2 mm 4 mps 743 mmHg 72%
19:00 +10°C° 0.2 mm 4 mps 744 mmHg 77%
20:00 +8°C° 0 mm 3 mps 744 mmHg 81%
21:00 +7°C° 0 mm 3 mps 744 mmHg 86%
22:00 +6°C° 0 mm 2 mps 744 mmHg 90%
23:00 +4°C° 0 mm 3 mps 744 mmHg 92%

21 May, Friday

Time Temperature Precipitation Wind Pressure Humidity
00:00 +4°C° 0 mm 3 mps 744 mmHg 93%
01:00 +4°C° 0 mm 3 mps 744 mmHg 95%
02:00 +4°C° 0 mm 3 mps 744 mmHg 95%
03:00 +3°C° 0 mm 3 mps 744 mmHg 95%
04:00 +3°C° 0 mm 3 mps 744 mmHg 96%
05:00 +5°C° 0 mm 3 mps 744 mmHg 91%
06:00 +7°C° 0 mm 3 mps 744 mmHg 86%
07:00 +9°C° 0 mm 3 mps 744 mmHg 81%
08:00 +11°C° 0 mm 4 mps 743 mmHg 73%
09:00 +12°C° 0 mm 4 mps 743 mmHg 66%
10:00 +14°C° 0 mm 4 mps 743 mmHg 58%
11:00 +15°C° 0 mm 4 mps 742 mmHg 56%
12:00 +15°C° 0 mm 4 mps 742 mmHg 53%
13:00 +17°C° 0 mm 4 mps 741 mmHg 51%
14:00 +17°C° 0.2 mm 4 mps 741 mmHg 57%
15:00 +16°C° 0.2 mm 3 mps 740 mmHg 63%
16:00 +16°C° 0.2 mm 3 mps 740 mmHg 69%
17:00 +14°C° 0.3 mm 2 mps 740 mmHg 75%
18:00 +13°C° 0.3 mm 1 mps 739 mmHg 80%
19:00 +12°C° 0.3 mm 1 mps 739 mmHg 86%
20:00 +12°C° 0 mm 1 mps 739 mmHg 87%
21:00 +10°C° 0 mm 2 mps 738 mmHg 87%
22:00 +10°C° 0 mm 2 mps 738 mmHg 88%
23:00 +10°C° 0 mm 3 mps 737 mmHg 87%

22 May, Saturday

Time Temperature Precipitation Wind Pressure Humidity
00:00 +9°C° 0 mm 3 mps 737 mmHg 87%
01:00 +9°C° 0 mm 3 mps 736 mmHg 86%
02:00 +9°C° 0 mm 3 mps 736 mmHg 86%
03:00 +8°C° 0 mm 3 mps 735 mmHg 86%
04:00 +8°C° 0 mm 3 mps 735 mmHg 86%
05:00 +8°C° 0.1 mm 4 mps 735 mmHg 84%
06:00 +9°C° 0.1 mm 5 mps 735 mmHg 82%
07:00 +10°C° 0.1 mm 6 mps 735 mmHg 79%
08:00 +11°C° 0 mm 6 mps 735 mmHg 78%
09:00 +13°C° 0 mm 6 mps 736 mmHg 76%
10:00 +14°C° 0 mm 6 mps 736 mmHg 74%
11:00 +14°C° 0.3 mm 6 mps 736 mmHg 73%
12:00 +14°C° 0.3 mm 6 mps 736 mmHg 72%
13:00 +14°C° 0.3 mm 6 mps 737 mmHg 71%
14:00 +14°C° 0.1 mm 6 mps 737 mmHg 67%
15:00 +14°C° 0.1 mm 5 mps 737 mmHg 63%
16:00 +14°C° 0.1 mm 5 mps 737 mmHg 60%
17:00 +13°C° 0.1 mm 4 mps 737 mmHg 64%
18:00 +12°C° 0.1 mm 3 mps 737 mmHg 68%
19:00 +12°C° 0.1 mm 2 mps 737 mmHg 73%
20:00 +10°C° 0 mm 3 mps 737 mmHg 77%
21:00 +9°C° 0 mm 3 mps 737 mmHg 80%
22:00 +8°C° 0 mm 3 mps 738 mmHg 84%
23:00 +7°C° 0 mm 3 mps 737 mmHg 85%
Show more